User: anonymous   Login
Location: Mentone
(34.5413°N, 85.5351°W)
Time: 22:17:30
(UTC-05:00)
Language:

A-11 Canister half - Orbit

View from above orbital plane
View from above orbital plane
View from above satellite
View from above satellite

Ground track
Ground track

The orbit data is extracted from the following two-line orbital elements,

1 00053U 60009E   16181.77932884 -.00000086  00000-0  00000+0 0  9992
2 00053  47.2774  46.2199 0098657 119.8272 241.2366 12.17187741492117
Epoch (UTC): 29 June 2016 18:42:14
Eccentricity: 0.0098657
inclination: 47.2774°
perigee height: 1526 km
apogee height: 1683 km
right ascension of ascending node: 46.2199°
argument of perigee: 119.8272°
revolutions per day: 12.17187741
mean anomaly at epoch: 241.2366°
orbit number at epoch: 49211

The dashed part of the orbit path shows where the satellite is in the earth's shadow,  

DLR